Key West, FL

5:40 PM EDT on September 21, 2017 (GMT -0400)
Key West International

Weather History for KEYW - February, 2013

Change the Weather History Date:

Friday, February 1, 2013

  Actual Average Record
Temperature  
Mean Temperature 67 °F 70 °F  
Max Temperature 72 °F 75 °F 85 °F (1957)
Min Temperature 62 °F 65 °F 47 °F (1909)
Degree Days  
Heating Degree Days 0 1  
Month to date heating degree days 0 1  
Since 1 July heating degree days 5 52  
Cooling Degree Days 2 6  
Month to date cooling degree days 2 6  
Year to date cooling degree days 293 171  
Growing Degree Days 17 (Base 50)    
Moisture  
Dew Point 54 °F    
Average Humidity 65    
Maximum Humidity 73    
Minimum Humidity 57    
Precipitation  
Precipitation 0.00 in 0.06 in 1.60 in (2010)
Month to date precipitation 0.00 0.06  
Year to date precipitation 0.29 2.10  
Snow  
Snow 0.00 in - - ()
Month to date snowfall 0.0  
Since 1 July snowfall 0.0  
Snow Depth 0.00 in    
Sea Level Pressure  
Sea Level Pressure 30.21 in    
Wind  
Wind Speed 13 mph (NNE)    
Max Wind Speed 21 mph    
Max Gust Speed 28 mph    
Visibility 10 miles    
Events      
T = Trace of Precipitation, MM = Missing Value Source: NWS Daily Summary

Daily Weather History Graph

Daily Weather History Graph

Search for Another Location

Airport or City:

Trip Planner

Search our weather history database for the weather conditions in past years. The results will help you decide how hot, cold, wet, or windy it might be!

Date:

Astronomy

Feb. 01, 2013 Rise Set
Actual Time 7:08 AM EST 6:12 PM EST
Civil Twilight 6:45 AM EST 6:36 PM EST
Nautical Twilight 6:17 AM EST 7:03 PM EST
Astronomical Twilight 5:50 AM EST 7:30 PM EST
Moon 11:32 PM EST (2/1) 10:23 AM EST (2/1)
Length of Visible Light 11h 51m
Length of Day
11h 03m
Waning Gibbous, 70% of the Moon is Illuminated
Feb 1
Waning Gibbous
Feb 3
Last Quarter
Feb 10
New
Feb 17
First Quarter
Feb 25
Full

Hourly Weather History & Observations

Time (EST) Temp. Dew Point Humidity Pressure Visibility Wind Dir Wind Speed Gust Speed Precip Events Conditions
12:53 AM 66.0 °F 54.0 °F 65% 30.17 in 10.0 mi NNE 13.8 mph - N/A   Clear
1:43 AM 64.4 °F 53.6 °F 68% 30.18 in 10.0 mi North 11.5 mph 18.4 mph N/A   Mostly Cloudy
1:53 AM 64.9 °F 53.1 °F 65% 30.18 in 10.0 mi NNE 12.7 mph 19.6 mph N/A   Overcast
2:53 AM 64.0 °F 51.1 °F 63% 30.17 in 10.0 mi NNE 13.8 mph 19.6 mph N/A   Overcast
3:53 AM 63.0 °F 51.1 °F 65% 30.16 in 10.0 mi NNE 12.7 mph - N/A   Mostly Cloudy
4:05 AM 62.6 °F 51.8 °F 68% 30.16 in 10.0 mi NNE 15.0 mph 20.7 mph N/A   Scattered Clouds
4:53 AM 63.0 °F 51.1 °F 65% 30.15 in 10.0 mi NNE 15.0 mph 21.9 mph N/A   Clear
5:53 AM 62.1 °F 51.1 °F 67% 30.18 in 10.0 mi NNE 11.5 mph 21.9 mph N/A   Clear
6:53 AM 62.1 °F 48.9 °F 62% 30.21 in 10.0 mi North 15.0 mph 24.2 mph N/A   Mostly Cloudy
7:19 AM 62.6 °F 48.2 °F 59% 30.20 in 10.0 mi NNE 16.1 mph 21.9 mph N/A   Scattered Clouds
7:53 AM 62.1 °F 50.0 °F 65% 30.22 in 10.0 mi NNE 15.0 mph 21.9 mph N/A   Clear
8:11 AM 62.6 °F 51.8 °F 68% 30.23 in 10.0 mi NNE 17.3 mph 23.0 mph N/A   Mostly Cloudy
8:19 AM 62.6 °F 51.8 °F 68% 30.23 in 10.0 mi NNE 15.0 mph 24.2 mph N/A   Mostly Cloudy
8:53 AM 63.0 °F 52.0 °F 67% 30.24 in 10.0 mi NNE 12.7 mph 26.5 mph N/A   Mostly Cloudy
9:53 AM 64.9 °F 52.0 °F 63% 30.26 in 10.0 mi NNE 17.3 mph 24.2 mph N/A   Partly Cloudy
10:53 AM 66.0 °F 53.1 °F 63% 30.26 in 10.0 mi North 16.1 mph 23.0 mph N/A   Mostly Cloudy
11:53 AM 66.0 °F 54.0 °F 65% 30.26 in 10.0 mi North 13.8 mph 24.2 mph N/A   Mostly Cloudy
12:53 PM 69.1 °F 55.9 °F 63% 30.24 in 10.0 mi NNE 16.1 mph 24.2 mph N/A   Mostly Cloudy
1:53 PM 70.0 °F 55.9 °F 61% 30.21 in 10.0 mi NNE 15.0 mph 21.9 mph N/A   Clear
2:53 PM 70.0 °F 55.9 °F 61% 30.20 in 10.0 mi NNE 13.8 mph 21.9 mph N/A   Scattered Clouds
3:53 PM 71.1 °F 57.0 °F 61% 30.20 in 10.0 mi North 15.0 mph 19.6 mph N/A   Clear
4:53 PM 70.0 °F 55.9 °F 61% 30.19 in 10.0 mi NNE 13.8 mph 20.7 mph N/A   Clear
5:53 PM 70.0 °F 54.0 °F 57% 30.20 in 10.0 mi NNE 12.7 mph - N/A   Mostly Cloudy
6:53 PM 69.1 °F 53.1 °F 57% 30.20 in 10.0 mi NNE 10.4 mph 17.3 mph N/A   Overcast
7:53 PM 70.0 °F 53.1 °F 55% 30.21 in 10.0 mi NE 11.5 mph 18.4 mph N/A   Overcast
8:53 PM 69.1 °F 55.0 °F 61% 30.22 in 10.0 mi NE 11.5 mph 23.0 mph N/A   Scattered Clouds
9:53 PM 68.0 °F 57.9 °F 70% 30.22 in 10.0 mi ENE 9.2 mph - N/A   Clear
10:53 PM 66.9 °F 57.9 °F 73% 30.23 in 10.0 mi ENE 10.4 mph - N/A   Clear
11:53 PM 66.9 °F 57.9 °F 73% 30.22 in 10.0 mi NE 10.4 mph 16.1 mph N/A   Mostly Cloudy